User: anonymous   Login
Location: Asheville, NC
(35.6000°N, 82.5500°W)
Time: 12:46:52
(UTC-05:00)
Language:

XW-2F - Orbit

View from above orbital plane
View from above orbital plane
View from above satellite
View from above satellite

Ground track
Ground track

The orbit data is extracted from the following two-line orbital elements,

1 40910U 15049M   19052.28130713  .00000932  00000-0  50441-4 0  9997
2 40910  97.4613  57.7760 0013309 234.9184 252.1836 15.17040375189216
Epoch (UTC): 21 February 2019 06:45:04
Eccentricity: 0.0013309
inclination: 97.4613°
perigee height: 505 km
apogee height: 524 km
right ascension of ascending node: 57.7760°
argument of perigee: 234.9184°
revolutions per day: 15.17040375
mean anomaly at epoch: 252.1836°
orbit number at epoch: 18921

The dashed part of the orbit path shows where the satellite is in the earth's shadow,  

DLR